Location: Shenandoah County Park
(38.9356°N, 78.4524°W)
Time: 00:32:20
(UTC-05:00)

Transit 2A - All Passes

Search period start: 06 February 2023 00:00
Search period end: 16 February 2023 00:00
Orbit: 593 x 963 km, 66.7° (Epoch: 05 February)

Date Brightness Start Highest point End Pass type
(mag) Time Alt. Az. Time Alt. Az. Time Alt. Az.
06 Feb - 00:00:31 10° N 00:04:38 18° NE 00:08:50 10° E night (unlit)
06 Feb - 01:42:25 10° NNW 01:48:39 88° ENE 01:55:02 10° SSE night (unlit)
06 Feb - 03:27:53 10° WNW 03:31:08 15° WSW 03:34:23 10° SW night (unlit)
06 Feb - 16:21:09 10° SSW 16:25:53 86° WNW 16:31:12 10° NNE daylight
06 Feb - 18:07:26 10° WNW 18:10:02 14° NW 18:12:45 10° N visible
06 Feb - 23:26:45 10° N 23:29:44 14° NE 23:32:46 10° ENE night (unlit)
07 Feb - 01:07:57 10° NNW 01:14:06 64° ENE 01:20:25 10° SE night (unlit)
07 Feb - 02:52:15 10° WNW 02:56:51 22° WSW 03:01:31 10° SSW night (unlit)
07 Feb - 15:46:46 10° SSW 15:51:25 62° ESE 15:56:36 10° NE daylight
07 Feb - 17:31:37 10° W 17:35:09 19° NW 17:38:56 10° N daylight
07 Feb - 22:54:16 10° NNE 22:54:45 10° NE 22:55:14 10° NE night (unlit)
08 Feb - 00:33:33 10° NNW 00:39:29 46° NE 00:45:34 10° SE night (unlit)
08 Feb - 02:17:08 10° NW 02:22:32 31° WSW 02:28:00 10° SSW night (unlit)
08 Feb - 15:12:39 10° S 15:17:02 39° ESE 15:21:52 10° NE daylight
08 Feb - 16:56:13 10° WSW 17:00:20 26° NW 17:04:50 10° N daylight
08 Feb - 23:59:14 10° NNW 00:04:48 34° NE 00:10:30 10° ESE night (unlit)
09 Feb - 01:42:15 10° NW 01:48:09 45° WSW 01:54:09 10° S night (unlit)
09 Feb - 14:38:50 10° SSE 14:42:42 25° ESE 14:46:55 10° NE daylight
09 Feb - 16:21:07 10° WSW 16:25:36 37° NW 16:30:36 10° NNE daylight
09 Feb - 23:25:02 10° N 23:30:03 25° NE 23:35:10 10° ESE night (unlit)
10 Feb - 01:07:32 10° NW 01:13:43 64° WSW 01:20:00 10° SSE night (unlit)
10 Feb - 14:05:30 10° SE 14:08:27 16° ESE 14:11:34 10° ENE daylight
10 Feb - 15:46:14 10° SW 15:50:57 55° WNW 15:56:14 10° NNE daylight
10 Feb - 22:50:58 10° N 22:55:13 19° NE 22:59:34 10° E night (unlit)
11 Feb - 00:32:57 10° NNW 00:39:14 89° SW 00:45:36 10° SSE night (unlit)
11 Feb - 02:18:38 10° WNW 02:21:39 14° WSW 02:24:41 10° SW night (unlit)
11 Feb - 15:11:36 10° SSW 15:16:23 83° WNW 15:21:46 10° NNE daylight
11 Feb - 16:58:01 10° WNW 17:00:35 14° NW 17:03:16 10° N daylight
11 Feb - 22:17:07 10° N 22:20:19 14° NE 22:23:33 10° ENE visible
11 Feb - 23:58:27 10° NNW 00:04:40 66° ENE 00:10:59 10° SE night (unlit)
12 Feb - 01:42:52 10° WNW 01:47:23 21° WSW 01:51:55 10° SSW night (unlit)
12 Feb - 14:37:10 10° SSW 14:41:53 65° ESE 14:47:10 10° NE daylight
12 Feb - 16:22:09 10° W 16:25:40 19° NW 16:29:27 10° N daylight
12 Feb - 21:44:05 10° NNE 21:45:20 11° NE 21:46:35 10° NE visible
12 Feb - 23:24:03 10° NNW 23:30:03 48° NE 23:36:10 10° SE night (unlit)
13 Feb - 01:07:42 10° NW 01:13:04 30° WSW 01:18:27 10° SSW night (unlit)
13 Feb - 14:03:00 10° S 14:07:29 41° ESE 14:12:26 10° NE daylight
13 Feb - 15:46:42 10° WSW 15:50:50 26° NW 15:55:22 10° N daylight
13 Feb - 22:49:43 10° NNW 22:55:21 35° NE 23:01:06 10° ESE visible
14 Feb - 00:32:48 10° NW 00:38:40 43° WSW 00:44:36 10° S night (unlit)
14 Feb - 13:29:08 10° SSE 13:33:09 27° ESE 13:37:31 10° NE daylight
14 Feb - 15:11:34 10° WSW 15:16:06 36° NW 15:21:07 10° NNE daylight
14 Feb - 22:15:28 10° N 22:20:36 26° NE 22:25:49 10° ESE visible
14 Feb - 23:58:04 10° NW 00:04:14 62° WSW 00:10:29 10° SSE night (unlit)
15 Feb - 12:55:43 10° SE 12:58:53 17° ESE 13:02:14 10° ENE daylight
15 Feb - 14:36:39 10° SW 14:41:25 53° WNW 14:46:45 10° NNE daylight
15 Feb - 21:41:22 10° N 21:45:46 20° NE 21:50:14 10° E visible
15 Feb - 23:23:26 10° NNW 23:29:45 86° WSW 23:36:06 10° SSE night (unlit)
